Regional Weather Roundup
Issued by NWS Jackson, KY

Home | Current Version | Previous Version | Graphics & Text | Print | Product List | Glossary Off
Versions: 1 2 3 4 5 6 7 8 9 10 11 12 13 14 15 16 17 18 19 20 21 22 23 24 25 26 27 28 29 30 31 32 33 34 35 36 37 38 39 40 41 42 43 44 45 46 47 48 49 50

000
ASUS43 KJKL 240111
RWRJKL

EAST KENTUCKY HOURLY WEATHER ROUNDUP
NATIONAL WEATHER SERVICE JACKSON KY
900 PM EDT TUE SEP 23 2014

NOTE: "FAIR" INDICATES FEW OR NO CLOUDS BELOW 12,000 FEET WITH
NO SIGNIFICANT WEATHER AND/OR OBSTRUCTIONS TO VISIBILITY.

* THESE REPORTS ARE NOT UNDER NWS QUALITY CONTROL AND MAY NOT
  REPORT WEATHER SUCH AS PRECIPITATION AND FOG.

KYZ079-080-083-085-087-088-110-112-115-119-120-240200
...EASTERN KENTUCKY...

CITY           SKY/WX    TMP DP  RH WIND       PRES   REMARKS
JACKSON        CLEAR     59  48  67 CALM      30.28S
LONDON         CLEAR     61  50  67 N3        30.27S
SOMERSET*      CLEAR     59  48  67 NE3       30.27S
MONTICELLO*    CLEAR     54  51  89 CALM      30.27R
MIDDLESBORO*   CLEAR     59  55  85 CALM      30.27R
HARLAN APT*    CLEAR     59  54  82 CALM      30.27R
HAZARD APT*    CLEAR     59  54  82 CALM      30.28
PIKEVILLE APT* CLEAR     59  52  77 N7        30.30R
BIG SANDY*     CLEAR     57  51  80 NE6       30.29R
MOREHEAD APT*  CLEAR     61  46  59 CALM      30.31S
$$

KYZ035-036-041-042-044-050-067-078-099-240200
...CENTRAL KENTUCKY...

CITY           SKY/WX    TMP DP  RH WIND       PRES   REMARKS
MT STERLING*   CLEAR     55  48  76 E3        30.30S
FLEMING/MASON* CLEAR     59  43  55 E5        30.31R
DANVILLE*      CLEAR     55  46  71 CALM      30.28R
RICHMOND*      CLEAR     59  48  67 E3        30.27S
LEXINGTON      CLEAR     63  46  54 E7        30.28S
FRANKFORT      CLEAR     56  47  71 CALM      30.26S
$$

KYZ091>093-OHZ055-061-077-WVZ005-015-034-035-042-240200
...SOUTHERN OHIO/WEST VIRGINIA...

CITY           SKY/WX    TMP DP  RH WIND       PRES   REMARKS
COVINGTON      CLEAR     63  44  50 E3        30.29R
COLUMBUS       CLEAR     62  44  51 E5        30.32R
DAYTON         CLEAR     62  45  53 E6        30.32R
WILMINGTON     CLEAR     58  42  55 NE7       30.31R
HUNTINGTON     CLEAR     57  50  77 NE3       30.28S
CHARLESTON     CLEAR     55  52  89 CALM      30.30R
PINEVILLE*     PTCLDY    56  56  99 MISG      30.35R
BECKLEY        MOCLDY    55  48  77 N5        30.33R
BLUEFIELD      CLOUDY    57  51  80 E3        30.34R
$$

VAZ002-007-008-TNZ017-027-036-066-071-240200
...SOUTHWEST VIRGINIA/EAST TENNESSEE...

CITY           SKY/WX    TMP DP  RH WIND       PRES   REMARKS
WISE*          CLEAR     57  50  77 NE5       30.32S
JONESVILLE*    CLEAR     57  54  88 CALM      30.28R
ABINGDON*      MOCLDY    62  53  72 E8        30.30R
BRISTOL        MOCLDY    64  52  64 SE3       30.27R
KNOXVILLE      CLEAR     66  53  63 N6        30.20S
OAK RIDGE      CLEAR     62  55  77 CALM      30.23S
CROSSVILLE     CLEAR     61  50  67 NE3       30.26R
NASHVILLE      CLEAR     67  49  52 NE3       30.21R
$$

...KEY TO REMARKS...
VSB - VISIBILITY IN MILES
WCI - WIND CHILL INDEX
HX  - HEAT INDEX

$$



USA.gov is the U.S. government's official web portal to all federal, state and local government web resources and services.